Location: Downe
(51.3167°N, 0.0500°E)
Time: 20:34:32
(UTC+00:00)

Cosmos 1825 - Pass Details

Date: 17 November 2019
Orbit: 504 x 508 km, 82.5° (Epoch: 10 December)

Event Time Altitude Azimuth Distance (km) Brightness Sun altitude
Rises 05:51:56 0° 194° (SSW) 2,595 5.8 -13.6°
Reaches altitude 10° 05:54:03 10° 196° (SSW) 1,715 4.8 -13.2°
Maximum altitude 05:57:48 72° 281° (W) 538 2.0 -12.7°
Drops below altitude 10° 06:01:35 10° 7° (N) 1,731 4.8 -12.1°
Sets 06:03:44 0° 9° (N) 2,622 5.7 -11.8°
